Location: Bannatyne
(13.0833°N, 59.5333°W)
Time: 04:46:34
(UTC+00:00)

deb Explorer IX - Pass Details

Date: 27 January 2020
Orbit: 549 x 1099 km, 38.8° (Epoch: 16 February)

Event Time Altitude Azimuth Distance (km) Brightness Sun altitude
Rises 20:07:29 0° 184° (S) 3,047 ? 23.7°
Reaches altitude 10° 20:11:59 10° 146° (SE) 2,287 ? 22.7°
Maximum altitude 20:13:12 11° 133° (SE) 2,281 ? 22.5°
Drops below altitude 10° 20:14:25 10° 120° (ESE) 2,374 ? 22.2°
Sets 20:19:31 0° 84° (E) 3,488 ? 21.1°
